Regional Weather Roundup
Issued by NWS

Home | Current Version | Previous Version | Graphics & Text | Print | Product List | Glossary On
Versions: 1 2 3 4 5 6 7 8 9 10 11 12 13 14 15 16 17 18 19 20 21 22 23 24 25 26 27 28 29 30 31 32 33 34 35 36 37 38 39 40 41 42 43 44 45 46 47 48 49 50
000
ASUS45 KBOI 161910
RWRID
WEATHER ROUNDUP FOR IDAHO
NATIONAL WEATHER SERVICE BOISE ID
100 PM MDT TUE SEP 16 2014

NOTE: "FAIR" INDICATES FEW OR NO CLOUDS BELOW 12000 FEET
WITH NO SIGNIFICANT WEATHER AND/OR OBSTRUCTIONS TO VISIBILITY

IDZ012-014-162000-
SOUTHWEST IDAHO


CITY           SKY/WX    TMP DP  RH WIND       PRES   REMARKS
BOISE          MOSUNNY   85  49  28 N3        29.95F
CALDWELL       MOSUNNY   81  55  41 NW5       29.96F
MOUNTAIN HOME  SUNNY     86  39  19 S5        29.96F
$$

IDZ016-017-162000-
SOUTHCENTRAL IDAHO


CITY           SKY/WX    TMP DP  RH WIND       PRES   REMARKS
BURLEY         MOSUNNY   84  42  22 NE7       30.02F
JEROME         MOSUNNY   81  38  21 E6        30.03F
TWIN FALLS     MOSUNNY   81  45  28 NE8       30.03F
$$

IDZ019>023-162000-
SOUTHEAST IDAHO


CITY           SKY/WX    TMP DP  RH WIND       PRES   REMARKS
IDAHO FALLS    MOSUNNY   76  39  26 NE7       30.11F
POCATELLO      MOSUNNY   87  36  16 E12       30.07F
REXBURG        PTSUNNY   74  41  30 VRB3      30.12F
$$

IDZ006-010-011-018-031-032-162000-
CENTRAL IDAHO MOUNTAINS


CITY           SKY/WX    TMP DP  RH WIND       PRES   REMARKS
MCCALL         MOSUNNY   72  48  42 S13       30.08F
HAILEY         MOSUNNY   81  41  24 SE10      30.12F
STANLEY          N/A     70  44  39 VRB6      30.21F
SALMON         CLOUDY    61  45  55 SW3       30.11S
CHALLIS        PTSUNNY   72  42  34 CALM      30.14F
$$

IDZ002-004-006-007-026-162000-
NORTHERN IDAHO


CITY           SKY/WX    TMP DP  RH WIND       PRES   REMARKS
LEWISTON       MOSUNNY   77  42  28 NW5       29.85F
LOWELL           N/A     73  45  36 N3        29.91F
COEUR D`ALENE  MOSUNNY   73  43  33 NE10      29.91F
MULLAN PASS    PTSUNNY   68  36  30 VRB3      30.11R
$$


USA.gov is the U.S. government's official web portal to all federal, state and local government web resources and services.